DL3NDS-13 Weather Reports


Display with metric or nautical units.
time (UTC)temp
F
wind
direction
speed
MPH
gust
MPH
rain 1hr
in
rain 24hr
in
rain mn
in
humidity
%
barometer
mb
20210125165751 27 0 0.0 0.0 0.00 0.00 0.00 92 1003.7
20210125165249 27 0 0.0 0.0 0.00 0.00 0.00 92 1003.7
20210125164751 27 0 0.0 0.0 0.00 0.00 0.00 92 1003.7
20210125164249 27 0 0.0 0.0 0.00 0.00 0.00 92 1003.6
20210125163751 27 0 0.0 0.0 0.00 0.00 0.00 92 1003.5
20210125163250 27 0 0.0 0.0 0.00 0.00 0.00 92 1003.5
20210125162754 27 0 0.0 0.0 0.00 0.00 0.00 92 1003.4
20210125162249 27 0 0.0 0.0 0.00 0.00 0.00 92 1003.4
20210125161249 27 0 0.0 0.0 0.00 0.00 0.00 92 1003.2
20210125160751 27 0 0.0 0.0 0.00 0.00 0.00 92 1003.1
20210125160252 27 0 0.0 0.0 0.00 0.00 0.00 92 1003.0
20210125155750 27 0 0.0 0.0 0.00 0.00 0.00 92 1003.0
20210125155250 27 0 0.0 0.0 0.00 0.00 0.00 92 1002.7
20210125154750 27 0 0.0 0.0 0.00 0.00 0.00 92 1002.7
20210125154249 27 0 0.0 0.0 0.00 0.00 0.00 91 1002.7
20210125153751 27 0 0.0 0.0 0.00 0.00 0.00 92 1002.7
20210125153301 27 0 0.0 0.0 0.00 0.00 0.00 92 1002.7
20210125152751 27 0 0.0 0.0 0.00 0.00 0.00 91 1002.5
20210125152253 27 59 1.0 0.0 0.00 0.00 0.00 91 1002.5
20210125151755 27 0 0.0 0.0 0.00 0.00 0.00 91 1002.4
20210125151248 27 0 0.0 0.0 0.00 0.00 0.00 91 1002.4
20210125150750 27 59 1.0 0.0 0.00 0.00 0.00 91 1002.2
20210125150254 27 59 1.0 0.0 0.00 0.00 0.00 91 1002.2
20210125145751 28 0 0.0 0.0 0.00 0.00 0.00 91 1002.1
20210125145250 28 0 0.0 0.0 0.00 0.00 0.00 91 1002.0
20210125144750 28 59 1.0 0.0 0.00 0.00 0.00 91 1002.0
20210125144249 28 0 0.0 0.0 0.00 0.00 0.00 91 1002.0
20210125143753 28 0 0.0 0.0 0.00 0.00 0.00 91 1001.9
20210125143250 28 0 0.0 0.0 0.00 0.00 0.00 91 1001.9
20210125142752 28 0 0.0 0.0 0.00 0.00 0.00 91 1001.7
20210125142250 28 59 1.0 0.0 0.00 0.00 0.00 90 1001.7
20210125141751 28 0 0.0 0.0 0.00 0.00 0.00 90 1001.7
20210125141310 28 0 0.0 0.0 0.00 0.00 0.00 90 1001.7
20210125140750 28 59 1.0 0.0 0.00 0.00 0.00 90 1001.7
20210125140253 28 0 0.0 0.0 0.00 0.00 0.00 90 1001.6
20210125135249 28 0 0.0 0.0 0.00 0.00 0.00 90 1001.6
20210125134251 28 0 0.0 0.0 0.00 0.00 0.00 91 1001.5
20210125133757 27 0 0.0 0.0 0.00 0.00 0.00 91 1001.2
20210125133249 27 0 0.0 0.0 0.00 0.00 0.00 91 1001.2
20210125132754 27 59 1.0 0.0 0.00 0.00 0.00 91 1001.2
20210125132249 27 59 1.0 0.0 0.00 0.00 0.00 91 1001.2
20210125131751 27 58 1.0 0.0 0.00 0.00 0.00 91 1001.2
20210125131250 27 58 1.0 0.0 0.00 0.00 0.00 91 1001.0
20210125130750 27 58 3.0 0.0 0.00 0.00 0.00 91 1001.0
20210125130248 27 58 3.0 0.0 0.00 0.00 0.00 91 1000.9
20210125125750 27 59 1.0 0.0 0.00 0.00 0.00 91 1000.7
20210125125249 27 0 0.0 0.0 0.00 0.00 0.00 91 1000.7
20210125124750 27 59 3.0 0.0 0.00 0.00 0.00 91 1000.7
20210125124250 27 57 1.0 0.0 0.00 0.00 0.00 91 1000.7
20210125123754 27 0 0.0 0.0 0.00 0.00 0.00 91 1000.7
20210125123249 27 57 1.0 0.0 0.00 0.00 0.00 90 1000.7
20210125122753 27 57 1.0 0.0 0.00 0.00 0.00 90 1000.7
20210125122249 28 57 1.0 0.0 0.00 0.00 0.00 90 1000.7
20210125121249 28 57 1.0 0.0 0.00 0.00 0.00 89 1000.6
20210125120750 28 0 0.0 0.0 0.00 0.00 0.00 89 1000.5
20210125120249 28 57 1.0 0.0 0.00 0.00 0.00 89 1000.5
20210125115754 28 57 1.0 0.0 0.00 0.00 0.00 88 1000.6
20210125115248 28 0 0.0 0.0 0.00 0.00 0.00 88 1000.5
20210125114248 28 0 0.0 0.0 0.00 0.00 0.00 88 1000.5
20210125113750 28 0 0.0 0.0 0.00 0.00 0.00 89 1000.5
20210125113248 28 0 0.0 0.0 0.00 0.00 0.00 91 1000.5
20210125112752 28 0 0.0 0.0 0.00 0.00 0.00 91 1000.5
20210125112249 27 0 0.0 0.0 0.00 0.00 0.00 92 1000.4
20210125111752 27 0 0.0 0.0 0.00 0.00 0.00 92 1000.5
20210125111257 27 57 1.0 0.0 0.00 0.00 0.00 93 1000.4
20210125110756 27 0 0.0 0.0 0.00 0.00 0.00 93 1000.4
20210125110248 27 57 1.0 0.0 0.00 0.00 0.00 93 1000.4
20210125105754 26 0 0.0 0.0 0.00 0.00 0.00 93 1000.5
20210125105251 26 0 0.0 0.0 0.00 0.00 0.00 93 1000.4
20210125104752 26 0 0.0 0.0 0.00 0.00 0.00 94 1000.4
20210125104250 26 0 0.0 0.0 0.00 0.00 0.00 94 1000.4
20210125103752 25 0 0.0 0.0 0.00 0.00 0.00 94 1000.4
20210125103248 25 57 1.0 0.0 0.00 0.00 0.00 94 1000.4
20210125102754 25 57 1.0 0.0 0.00 0.00 0.00 94 1000.4
20210125102250 25 58 1.0 0.0 0.00 0.00 0.00 94 1000.2
20210125101750 25 65 1.0 0.0 0.00 0.00 0.00 94 1000.2
20210125101248 25 65 1.0 0.0 0.00 0.00 0.00 94 1000.2
20210125100751 25 65 1.0 0.0 0.00 0.00 0.00 94 1000.1
20210125100251 25 0 0.0 0.0 0.00 0.00 0.00 94 1000.2
20210125095753 25 0 0.0 0.0 0.00 0.00 0.00 94 1000.2
20210125095250 25 0 0.0 0.0 0.00 0.00 0.00 95 1000.2
20210125094750 24 65 1.0 0.0 0.00 0.00 0.00 94 1000.1
20210125094248 24 65 1.0 0.0 0.00 0.00 0.00 95 1000.2
20210125093752 24 62 1.0 0.0 0.00 0.00 0.00 95 1000.1
20210125093248 23 0 0.0 0.0 0.00 0.00 0.00 95 1000.0
20210125092750 23 0 0.0 0.0 0.00 0.00 0.00 94 1000.0
20210125092248 22 0 0.0 0.0 0.00 0.00 0.00 94 999.9
20210125091750 22 63 3.0 0.0 0.00 0.00 0.00 94 999.9
20210125091248 22 70 1.0 0.0 0.00 0.00 0.00 94 999.9
20210125090750 21 0 0.0 0.0 0.00 0.00 0.00 94 999.7
20210125090248 21 0 0.0 0.0 0.00 0.00 0.00 94 999.7
20210125085752 21 0 0.0 0.0 0.00 0.00 0.00 94 999.6
20210125085253 21 94 1.0 0.0 0.00 0.00 0.00 94 999.6
20210125084750 21 0 0.0 0.0 0.00 0.00 0.00 94 999.5
20210125084252 20 0 0.0 0.0 0.00 0.00 0.00 93 999.6
20210125083753 20 0 0.0 0.0 0.00 0.00 0.00 94 999.5
20210125083249 20 0 0.0 0.0 0.00 0.00 0.00 93 999.5
20210125082804 20 94 1.0 0.0 0.00 0.00 0.00 93 999.5
20210125082248 20 101 3.0 0.0 0.00 0.00 0.00 94 999.2
20210125081751 20 0 0.0 0.0 0.00 0.00 0.00 94 999.4
20210125081250 20 0 0.0 0.0 0.00 0.00 0.00 94 999.2
20210125080750 20 125 1.0 0.0 0.00 0.00 0.00 94 999.2
20210125080254 20 0 0.0 0.0 0.00 0.00 0.00 94 999.2
20210125075750 20 0 0.0 0.0 0.00 0.00 0.00 94 999.2
20210125075251 19 0 0.0 0.0 0.00 0.00 0.00 93 999.2
20210125074751 19 0 0.0 0.0 0.00 0.00 0.00 93 999.0
20210125074249 19 0 0.0 0.0 0.00 0.00 0.00 93 999.0
20210125073750 19 0 0.0 0.0 0.00 0.00 0.00 93 999.0
20210125073249 19 0 0.0 0.0 0.00 0.00 0.00 93 999.0
20210125072750 19 0 0.0 0.0 0.00 0.00 0.00 93 999.0
20210125072249 19 0 0.0 0.0 0.00 0.00 0.00 93 999.0
20210125071751 19 0 0.0 0.0 0.00 0.00 0.00 93 999.0
20210125071248 19 0 0.0 0.0 0.00 0.00 0.00 93 998.7
20210125070248 20 0 0.0 0.0 0.00 0.00 0.00 93 998.6
20210125065752 20 0 0.0 0.0 0.00 0.00 0.00 93 998.6
20210125065248 20 111 1.0 0.0 0.00 0.00 0.00 94 998.4
20210125064754 20 0 0.0 0.0 0.00 0.00 0.00 94 998.4
20210125064248 20 252 1.0 0.0 0.00 0.00 0.00 94 998.2
20210125063750 19 316 1.0 0.0 0.00 0.00 0.00 93 998.2
20210125063248 20 267 1.0 0.0 0.00 0.00 0.00 93 998.2
20210125062755 20 241 1.0 0.0 0.00 0.00 0.00 93 998.2
20210125062248 20 0 0.0 0.0 0.00 0.00 0.00 93 998.2
20210125061752 20 0 0.0 0.0 0.00 0.00 0.00 93 998.1
20210125061248 20 0 0.0 0.0 0.00 0.00 0.00 93 998.1
20210125060750 20 0 0.0 0.0 0.00 0.00 0.00 93 998.0
20210125060248 20 0 0.0 0.0 0.00 0.00 0.00 93 998.0
20210125055754 20 0 0.0 0.0 0.00 0.00 0.00 93 998.0
20210125055248 20 0 0.0 0.0 0.00 0.00 0.00 93 998.0
20210125054750 20 0 0.0 0.0 0.00 0.00 0.00 93 997.9
20210125054251 20 0 0.0 0.0 0.00 0.00 0.00 93 997.7
20210125053750 20 0 0.0 0.0 0.00 0.00 0.00 93 997.7
20210125053249 19 0 0.0 0.0 0.00 0.00 0.00 93 997.7
20210125052752 19 0 0.0 0.0 0.00 0.00 0.00 93 997.7
20210125052255 19 0 0.0 0.0 0.00 0.00 0.00 93 997.7
20210125051758 19 0 0.0 0.0 0.00 0.00 0.00 93 997.7
20210125051248 19 0 0.0 0.0 0.00 0.00 0.00 93 997.7
20210125050750 19 0 0.0 0.0 0.00 0.00 0.00 92 997.7
20210125050249 19 0 0.0 0.0 0.00 0.00 0.00 92 997.7
20210125045756 19 0 0.0 0.0 0.00 0.00 0.00 92 997.6
20210125045253 19 0 0.0 0.0 0.00 0.00 0.00 91 997.6
20210125044752 19 0 0.0 0.0 0.00 0.00 0.00 91 997.6
20210125044248 19 0 0.0 0.0 0.00 0.00 0.00 92 997.5
20210125043750 19 0 0.0 0.0 0.00 0.00 0.00 92 997.5
20210125043253 20 0 0.0 0.0 0.00 0.00 0.00 92 997.5
20210125042754 19 0 0.0 0.0 0.00 0.00 0.00 92 997.6
20210125042248 19 0 0.0 0.0 0.00 0.00 0.00 91 997.6
20210125041751 20 0 0.0 0.0 0.00 0.00 0.00 91 997.5
20210125041248 20 0 0.0 0.0 0.00 0.00 0.00 91 997.5
20210125040751 20 0 0.0 0.0 0.00 0.00 0.00 91 997.5
20210125040253 20 0 0.0 0.0 0.00 0.00 0.00 91 997.5
20210125035751 20 0 0.0 0.0 0.00 0.00 0.00 91 997.5
20210125035251 21 0 0.0 0.0 0.00 0.00 0.00 91 997.4
20210125034759 21 0 0.0 0.0 0.00 0.00 0.00 91 997.2
20210125034255 21 0 0.0 0.0 0.00 0.00 0.00 91 997.4
20210125033750 22 0 0.0 0.0 0.00 0.00 0.00 91 997.4
20210125033252 22 0 0.0 0.0 0.00 0.00 0.00 91 997.4
20210125032750 22 0 0.0 0.0 0.00 0.00 0.00 91 997.4
20210125032313 23 0 0.0 0.0 0.00 0.00 0.00 92 997.2
20210125031752 23 0 0.0 0.0 0.00 0.00 0.00 92 997.2
20210125031250 23 0 0.0 0.0 0.00 0.00 0.00 92 997.4
20210125030750 24 0 0.0 0.0 0.00 0.00 0.00 93 997.4
20210125030253 24 257 1.0 0.0 0.00 0.00 0.00 93 997.2
20210125025750 24 257 3.0 0.0 0.00 0.00 0.00 93 997.2
20210125025249 24 264 3.0 0.0 0.00 0.00 0.00 93 997.2
20210125024750 23 263 3.0 0.0 0.00 0.00 0.00 93 997.2
20210125024248 23 261 3.0 0.0 0.00 0.00 0.00 93 997.2
20210125023751 23 270 3.0 0.0 0.00 0.00 0.00 93 997.2
20210125023248 23 0 0.0 0.0 0.00 0.00 0.00 93 997.2
20210125022800 23 0 0.0 0.0 0.00 0.00 0.00 92 997.2
20210125022249 23 0 0.0 0.0 0.00 0.00 0.00 92 997.4
20210125021750 23 0 0.0 0.0 0.00 0.00 0.00 92 997.5
20210125021249 23 0 0.0 0.0 0.00 0.00 0.00 93 997.5
20210125020750 24 0 0.0 0.0 0.00 0.00 0.00 93 997.5
20210125020249 24 0 0.0 0.0 0.00 0.00 0.00 93 997.5
20210125015750 24 0 0.0 0.0 0.00 0.00 0.00 92 997.5
20210125015249 24 0 0.0 0.0 0.00 0.00 0.00 92 997.5
20210125014750 23 0 0.0 0.0 0.00 0.00 0.00 92 997.5
20210125014249 24 0 0.0 0.0 0.00 0.00 0.00 91 997.4
20210125013750 24 318 1.0 0.0 0.00 0.00 0.00 91 997.4
20210125013257 24 0 0.0 0.0 0.00 0.00 0.00 91 997.5
20210125012750 24 0 0.0 0.0 0.00 0.00 0.00 91 997.4
20210125012251 25 0 0.0 0.0 0.00 0.00 0.00 91 997.5
20210125011750 25 0 0.0 0.0 0.00 0.00 0.00 91 997.4
20210125011249 25 0 0.0 0.0 0.00 0.00 0.00 92 997.5
20210125010752 25 0 0.0 0.0 0.00 0.00 0.00 92 997.4
20210125010249 26 0 0.0 0.0 0.00 0.00 0.00 92 997.4
20210125005753 26 0 0.0 0.0 0.00 0.00 0.00 92 997.5
20210125005253 26 0 0.0 0.0 0.00 0.00 0.00 92 997.6
20210125004251 26 0 0.0 0.0 0.00 0.00 0.00 92 997.6
20210125003750 26 267 3.0 0.0 0.00 0.00 0.00 92 997.7
20210125003252 27 267 3.0 0.0 0.00 0.00 0.00 92 997.6
20210125002753 27 251 3.0 0.0 0.00 0.00 0.00 92 997.7
20210125002250 27 246 1.0 0.0 0.00 0.00 0.00 92 997.7
20210125001750 27 246 4.0 0.0 0.00 0.00 0.00 92 997.7
20210125001249 27 263 3.0 0.0 0.00 0.00 0.00 92 997.7
20210125000750 27 258 3.0 0.0 0.00 0.00 0.00 92 997.7
20210125000257 28 264 6.0 0.0 0.00 0.00 0.00 92 997.7
20210124235750 28 256 4.0 0.0 0.00 0.00 0.00 92 997.7
20210124235249 28 265 4.0 0.0 0.00 0.00 0.00 92 997.9
20210124234750 28 264 4.0 0.0 0.00 0.00 0.00 92 997.9
20210124234249 28 246 4.0 0.0 0.00 0.00 0.00 92 998.0
20210124233751 28 249 8.0 0.0 0.00 0.00 0.00 93 998.0
20210124233250 28 249 8.0 0.0 0.00 0.00 0.00 93 998.0
20210124232751 28 255 6.0 0.0 0.00 0.00 0.00 93 997.9
20210124232250 28 269 4.0 0.0 0.00 0.00 0.00 93 997.9
20210124231750 29 293 3.0 0.0 0.00 0.00 0.00 93 998.0
20210124231248 29 272 3.0 0.0 0.00 0.00 0.00 93 997.9
20210124230751 29 259 3.0 0.0 0.00 0.00 0.00 93 997.9
20210124230251 29 245 4.0 0.0 0.00 0.00 0.00 93 998.0
20210124225750 29 240 9.0 0.0 0.00 0.00 0.00 93 998.1
20210124225248 29 257 8.0 0.0 0.00 0.00 0.00 94 998.1
20210124224758 29 256 6.0 0.0 0.00 0.00 0.00 94 998.0
20210124224248 29 255 8.0 0.0 0.00 0.00 0.00 93 998.2
20210124223753 29 249 6.0 0.0 0.00 0.00 0.00 94 998.1
20210124223251 29 269 6.0 0.0 0.00 0.00 0.00 94 998.1
20210124222750 29 252 12.0 0.0 0.00 0.00 0.00 93 998.5
20210124222248 29 254 11.0 0.0 0.00 0.00 0.00 93 998.1
20210124221751 29 252 9.0 0.0 0.00 0.00 0.00 93 998.0
20210124221251 29 254 9.0 0.0 0.00 0.00 0.00 94 998.0
20210124220751 29 253 8.0 0.0 0.00 0.00 0.00 94 997.7
20210124220248 29 245 8.0 0.0 0.00 0.00 0.00 94 997.7
20210124215752 29 254 6.0 0.0 0.00 0.00 0.00 94 997.7
20210124215248 29 255 11.0 0.0 0.00 0.00 0.00 94 997.7
20210124214750 29 238 8.0 0.0 0.00 0.00 0.00 94 997.7
20210124214248 30 258 11.0 0.0 0.00 0.00 0.00 94 997.7
20210124213750 30 255 4.0 0.0 0.00 0.00 0.00 94 997.5
20210124213248 30 262 9.0 0.0 0.00 0.00 0.00 94 997.5
20210124212751 30 264 8.0 0.0 0.00 0.00 0.00 94 997.5
20210124212251 30 272 8.0 0.0 0.00 0.00 0.00 94 997.5
20210124211750 30 276 8.0 0.0 0.00 0.00 0.00 94 997.4
20210124211253 30 284 11.0 0.0 0.00 0.00 0.00 94 997.2
20210124210750 30 283 9.0 0.0 0.00 0.00 0.00 94 997.2
20210124210310 30 292 4.0 0.0 0.00 0.00 0.00 94 997.2
20210124205752 30 280 9.0 0.0 0.00 0.00 0.00 94 997.2
20210124205248 30 270 6.0 0.0 0.00 0.00 0.00 94 997.2
20210124204751 30 280 9.0 0.0 0.00 0.00 0.00 94 997.2
20210124204248 30 279 9.0 0.0 0.00 0.00 0.00 94 997.2
20210124203750 30 272 11.0 0.0 0.00 0.00 0.00 94 997.2
20210124203248 30 275 9.0 0.0 0.00 0.00 0.00 94 997.1
20210124202750 30 270 9.0 0.0 0.00 0.00 0.00 94 997.0
20210124202248 30 272 11.0 0.0 0.00 0.00 0.00 94 997.0
20210124201753 30 272 9.0 0.0 0.00 0.00 0.00 94 996.9
20210124201251 30 265 8.0 0.0 0.00 0.00 0.00 94 997.0
20210124200750 30 268 8.0 0.0 0.00 0.00 0.00 94 996.9
20210124200254 30 261 9.0 0.0 0.00 0.00 0.00 94 996.9
20210124195751 30 272 8.0 0.0 0.00 0.00 0.00 94 996.9
20210124195253 30 273 9.0 0.0 0.00 0.00 0.00 94 996.9
20210124194754 30 265 6.0 0.0 0.00 0.00 0.00 94 996.7
20210124194248 30 272 11.0 0.0 0.00 0.00 0.00 94 996.7
20210124193751 30 268 11.0 0.0 0.00 0.00 0.00 94 996.7
20210124193250 30 273 9.0 0.0 0.00 0.00 0.00 94 996.7
20210124192750 30 275 9.0 0.0 0.00 0.00 0.00 94 996.6
20210124192254 30 260 6.0 0.0 0.00 0.00 0.00 94 996.6
20210124191750 30 266 8.0 0.0 0.00 0.00 0.00 94 996.5
20210124191248 30 264 9.0 0.0 0.00 0.00 0.00 94 996.6
20210124190750 30 255 6.0 0.0 0.00 0.00 0.00 94 996.5
20210124190252 30 265 12.0 0.0 0.00 0.00 0.00 94 996.4
20210124185753 30 264 9.0 0.0 0.00 0.00 0.00 94 996.2
20210124185250 30 279 6.0 0.0 0.00 0.00 0.00 94 996.2
20210124184750 30 273 3.0 0.0 0.00 0.00 0.00 94 996.2
20210124184248 30 254 8.0 0.0 0.00 0.00 0.00 94 996.2
20210124183751 30 252 8.0 0.0 0.00 0.00 0.00 94 996.2
20210124183256 30 265 8.0 0.0 0.00 0.00 0.00 94 996.2
20210124182751 30 265 9.0 0.0 0.00 0.00 0.00 94 996.0
20210124182250 30 263 12.0 0.0 0.00 0.00 0.00 94 996.1
20210124181751 30 256 4.0 0.0 0.00 0.00 0.00 94 996.0
20210124181248 30 255 4.0 0.0 0.00 0.00 0.00 94 996.0
20210124180754 30 271 8.0 0.0 0.00 0.00 0.00 94 995.7
20210124180311 30 259 8.0 0.0 0.00 0.00 0.00 94 995.9
20210124175750 30 272 8.0 0.0 0.00 0.00 0.00 94 995.7
20210124175253 30 260 3.0 0.0 0.00 0.00 0.00 94 995.7
20210124174750 30 254 4.0 0.0 0.00 0.00 0.00 94 995.7
20210124174249 30 241 6.0 0.0 0.00 0.00 0.00 94 995.6
20210124173754 30 249 4.0 0.0 0.00 0.00 0.00 94 995.5
20210124173248 30 249 8.0 0.0 0.00 0.00 0.00 94 995.4
20210124172750 30 248 4.0 0.0 0.00 0.00 0.00 94 995.2
20210124172249 30 242 6.0 0.0 0.00 0.00 0.00 94 995.2
20210124171248 30 254 8.0 0.0 0.00 0.00 0.00 94 995.2
20210124170259 30 268 9.0 0.0 0.00 0.00 0.00 94 995.1